Regional Weather Roundup
Issued by NWS

Home | Current Version | Previous Version | Text Only | Print | Product List | Glossary On
Versions: 1 2 3 4 5 6 7 8 9 10 11 12 13 14 15 16 17 18 19 20 21 22 23 24 25 26 27
000
ASPQ40 PGUM 210612
RWRPQ
WEATHER ROUNDUP FOR THE MARIANAS AND MICRONESIA
NATIONAL WEATHER SERVICE TIYAN GU
400 PM CHST MON AUG 21 2017

GUZ001>004-210700-
MARIANA ISLANDS-

CITY           SKY/WX    TMP DP  RH WIND       PRES   REMARKS
GUAM AIRPORT   SUNNY     82  77  83 S8        29.79S HX  91
ANDERSEN AFB   PTSUNNY   79  73  83 S7        29.84S
ROTA AIRPORT   PTSUNNY   81  72  74 S12       29.78S
TINIAN AP      PTSUNNY   86  75  70 S10       29.76S HX  95
SAIPAN AP      MOSUNNY   90  75  62 S8        29.77F HX 100

$$

PMZ161-210700-
REPUBLIC OF PALAU-

CITY           SKY/WX    TMP DP  RH WIND       PRES   REMARKS
KOROR AP       LGT RAIN  77  73  88 NW3       29.76S
KOROR WSO      HVY RAIN  77  73  88 W7        29.77S

$$

PMZ171>174-210700-
FEDERATED STATES OF MICRONESIA-

CITY           SKY/WX    TMP DP  RH WIND       PRES   REMARKS
YAP AIRPORT    CLOUDY    86  77  74 VRB5      29.74R HX  97
CHUUK AP       CLOUDY    90  84  84 VRB5      29.74S HX 115
POHNPEI AP     NOT AVBL
POHNPEI WSO    CLOUDY    88  77  70 W6        29.76S HX 100
KOSRAE AP      NOT AVBL

$$

PMZ181-210700-
REPUBLIC OF THE MARSHALL ISLANDS-

CITY           SKY/WX    TMP DP  RH WIND       PRES   REMARKS
KWAJALEIN AP   MOSUNNY   86  73  66 E12       29.78S HX  93
MAJURO AP      NOT AVBL
MAJURO WSO     PTSUNNY   84  75  74 E7        29.78R HX  92

$$





USA.gov is the U.S. government's official web portal to all federal, state and local government web resources and services.